Hourly Data Report for October 09, 2020

SHEARWATER RCS
NOVA SCOTIA
Current Station Operator: ECCC - MSC

44°37'47.000" N
63°30'48.000" W
24.00 m
8205092
71264
AAW

Download Data

Hourly Data (October 2020)
Hourly Data Report for October 9, 2020
TIME Temp Definition
°C
Dew Point Definition
°C
Rel Hum Definition
%
Wind Dir Definition
10's deg

Wind Spd Definition
km/h
Visibility Definition
km
Stn Press Definition
kPa
Hmdx Definition


Wind Chill Definition


Weather Definition


00:00 7.0 -2.5 51 30 27   100.13     LegendNANA
01:00 6.5 -2.8 51 30 21   100.21     LegendNANA
02:00 6.0 -2.3 55 28 18   100.25     LegendNANA
03:00 5.7 -2.6 55 29 21   100.31     LegendNANA
04:00 5.4 -2.9 55 29 20   100.40     LegendNANA
05:00 5.1 -2.7 57 29 19   100.48     LegendNANA
06:00 4.8 -2.8 58 28 21   100.55     LegendNANA
07:00 4.9 -2.1 60 27 20   100.61     LegendNANA
08:00 5.7 -1.9 58 27 19   100.71     LegendNANA
09:00 6.6 -2.7 52 28 24   100.71     LegendNANA
10:00 7.5 -3.7 45 29 27   100.72     LegendNANA
11:00 8.4 -2.9 45 29 26   100.73     LegendNANA
12:00 9.1 -4.0 39 29 25   100.75     LegendNANA
13:00 9.7 -4.0 38 28 23   100.76     LegendNANA
14:00 9.8 -3.4 39 29 23   100.78     LegendNANA
15:00 9.8 -4.0 37 28 21   100.81     LegendNANA
16:00 9.6 -3.9 38 29 21   100.89     LegendNANA
17:00 9.2 -3.3 41 27 20   100.97     LegendNANA
18:00 8.2 -2.1 48 25 11   101.06     LegendNANA
19:00 7.6 -1.3 53 24 7   101.15     LegendNANA
20:00 7.8 -0.5 56 24 12   101.22     LegendNANA
21:00 8.2 1.7 64 25 16   101.26     LegendNANA
22:00 8.3 2.3 66 25 14   101.31     LegendNANA
23:00 7.8 2.9 71 26 8   101.30     LegendNANA

Notes on Data Quality.

Legend

  • E = Estimated
  • M = Missing
  • NA = Not Available*
  • [empty] = Indicates an unobserved value
Date modified: